| time (UTC) | temp C | wind direction | speed KPH | gust KPH | rain 1hr cm | rain 24hr cm | rain mn cm | humidity % | barometer mb |
| 20260903200126 | 24 | 236 | 25.7 | 16.1 | 0.00 | 0.00 | 0.00 | 12 | |
| 20260903195628 | 24 | 243 | 20.9 | 24.1 | 0.00 | 0.00 | 0.00 | 12 | |
| 20260903195131 | 23 | 273 | 20.9 | 6.4 | 0.00 | 0.00 | 0.00 | 12 | |
| 20260903194633 | 23 | 215 | 20.9 | 27.4 | 0.00 | 0.00 | 0.00 | 13 | |
| 20260903194135 | 23 | 224 | 25.7 | 35.4 | 0.00 | 0.00 | 0.00 | 13 | |
| 20260903193638 | 23 | 205 | 22.5 | 17.7 | 0.00 | 0.00 | 0.00 | 13 | |
| 20260903193137 | 23 | 232 | 20.9 | 29.0 | 0.00 | 0.00 | 0.00 | 13 | |
| 20260903192639 | 23 | 221 | 25.7 | 25.7 | 0.00 | 0.00 | 0.00 | 13 | |
| 20260903192141 | 23 | 203 | 16.1 | 20.9 | 0.00 | 0.00 | 0.00 | 13 | |
| 20260903191643 | 23 | 246 | 24.1 | 0.0 | 0.00 | 0.00 | 0.00 | 13 | |
| 20260903191146 | 23 | 235 | 27.4 | 25.7 | 0.00 | 0.00 | 0.00 | 13 | |
| 20260903190648 | 23 | 210 | 16.1 | 6.4 | 0.00 | 0.00 | 0.00 | 14 | |
| 20260903190147 | 22 | 215 | 24.1 | 22.5 | 0.00 | 0.00 | 0.00 | 14 | |
| 20260903185650 | 22 | 239 | 27.4 | 14.5 | 0.00 | 0.00 | 0.00 | 14 | |
| 20260903185152 | 22 | 217 | 17.7 | 27.4 | 0.00 | 0.00 | 0.00 | 15 | |
| 20260903184654 | 22 | 219 | 29.0 | 29.0 | 0.00 | 0.00 | 0.00 | 14 | |
| 20260903184156 | 22 | 226 | 20.9 | 27.4 | 0.00 | 0.00 | 0.00 | 14 | |
| 20260903183659 | 22 | 191 | 19.3 | 9.7 | 0.00 | 0.00 | 0.00 | 15 | |
| 20260903183158 | 22 | 201 | 24.1 | 25.7 | 0.00 | 0.00 | 0.00 | 15 | |
| 20260903182700 | 22 | 208 | 25.7 | 19.3 | 0.00 | 0.00 | 0.00 | 15 | |
| 20260903182202 | 22 | 194 | 16.1 | 0.0 | 0.00 | 0.00 | 0.00 | 15 | |
| 20260903181241 | 22 | 218 | 24.1 | 9.7 | 0.00 | 0.00 | 0.00 | 15 | |
| 20260903181207 | 22 | 218 | 24.1 | 9.7 | 0.00 | 0.00 | 0.00 | 15 | |
| 20260903180709 | 21 | 217 | 22.5 | 29.0 | 0.00 | 0.00 | 0.00 | 15 | |
| 20260903180208 | 21 | 215 | 19.3 | 17.7 | 0.00 | 0.00 | 0.00 | 16 | |
| 20260903175710 | 21 | 210 | 24.1 | 12.9 | 0.00 | 0.00 | 0.00 | 15 | |
| 20260903175213 | 21 | 219 | 17.7 | 20.9 | 0.00 | 0.00 | 0.00 | 14 | |
| 20260903174715 | 21 | 231 | 19.3 | 20.9 | 0.00 | 0.00 | 0.00 | 14 | |
| 20260903174217 | 21 | 243 | 12.9 | 17.7 | 0.00 | 0.00 | 0.00 | 14 | |
| 20260903173219 | 20 | 208 | 22.5 | 17.7 | 0.00 | 0.00 | 0.00 | 14 | |
| 20260903172721 | 20 | 212 | 20.9 | 30.6 | 0.00 | 0.00 | 0.00 | 15 | |
| 20260903172223 | 20 | 226 | 20.9 | 4.8 | 0.00 | 0.00 | 0.00 | 14 | |
| 20260903171726 | 20 | 238 | 12.9 | 22.5 | 0.00 | 0.00 | 0.00 | 15 | |
| 20260903171228 | 20 | 217 | 11.3 | 20.9 | 0.00 | 0.00 | 0.00 | 16 | |
| 20260903170731 | 20 | 181 | 4.8 | 25.7 | 0.00 | 0.00 | 0.00 | 17 | |
| 20260903170229 | 20 | 204 | 19.3 | 29.0 | 0.00 | 0.00 | 0.00 | 18 | |
| 20260903165731 | 19 | 214 | 19.3 | 17.7 | 0.00 | 0.00 | 0.00 | 20 | |
| 20260903165234 | 19 | 215 | 16.1 | 25.7 | 0.00 | 0.00 | 0.00 | 21 | |
| 20260903164737 | 19 | 211 | 25.7 | 25.7 | 0.00 | 0.00 | 0.00 | 23 | |
| 20260903164238 | 18 | 226 | 19.3 | 27.4 | 0.00 | 0.00 | 0.00 | 25 | |
| 20260903163741 | 18 | 207 | 20.9 | 19.3 | 0.00 | 0.00 | 0.00 | 26 | |
| 20260903163240 | 18 | 233 | 20.9 | 22.5 | 0.00 | 0.00 | 0.00 | 27 | |
| 20260903162743 | 18 | 225 | 16.1 | 22.5 | 0.00 | 0.00 | 0.00 | 29 | |
| 20260903162244 | 18 | 198 | 16.1 | 22.5 | 0.00 | 0.00 | 0.00 | 30 | |
| 20260903161747 | 17 | 219 | 17.7 | 29.0 | 0.00 | 0.00 | 0.00 | 32 | |
| 20260903161249 | 17 | 201 | 14.5 | 22.5 | 0.00 | 0.00 | 0.00 | 33 | |
| 20260903160751 | 17 | 215 | 16.1 | 24.1 | 0.00 | 0.00 | 0.00 | 34 | |
| 20260903160250 | 17 | 215 | 20.9 | 19.3 | 0.00 | 0.00 | 0.00 | 35 | |
| 20260903155753 | 17 | 218 | 19.3 | 25.7 | 0.00 | 0.00 | 0.00 | 37 | |
| 20260903155255 | 17 | 217 | 19.3 | 20.9 | 0.00 | 0.00 | 0.00 | 38 | |
| 20260903154757 | 17 | 214 | 22.5 | 19.3 | 0.00 | 0.00 | 0.00 | 39 | |
| 20260903153803 | 16 | 238 | 17.7 | 12.9 | 0.00 | 0.00 | 0.00 | 39 | |
| 20260903153301 | 16 | 160 | 9.7 | 4.8 | 0.00 | 0.00 | 0.00 | 41 | |
| 20260903152803 | 16 | 231 | 19.3 | 25.7 | 0.00 | 0.00 | 0.00 | 41 | |
| 20260903152307 | 16 | 226 | 19.3 | 14.5 | 0.00 | 0.00 | 0.00 | 41 | |
| 20260903151808 | 16 | 233 | 16.1 | 19.3 | 0.00 | 0.00 | 0.00 | 41 | |
| 20260903151311 | 15 | 208 | 17.7 | 6.4 | 0.00 | 0.00 | 0.00 | 41 | |
| 20260903150813 | 15 | 240 | 12.9 | 9.7 | 0.00 | 0.00 | 0.00 | 42 | |
| 20260903150312 | 15 | 229 | 17.7 | 25.7 | 0.00 | 0.00 | 0.00 | 42 | |
| 20260903145814 | 15 | 214 | 3.2 | 0.0 | 0.00 | 0.00 | 0.00 | 45 | |
| 20260903145316 | 14 | 212 | 4.8 | 0.0 | 0.00 | 0.00 | 0.00 | 46 | |
| 20260903144818 | 14 | 176 | 12.9 | 0.0 | 0.00 | 0.00 | 0.00 | 46 | |
| 20260903144321 | 13 | 203 | 16.1 | 22.5 | 0.00 | 0.00 | 0.00 | 48 | |
| 20260903143823 | 13 | 211 | 12.9 | 0.0 | 0.00 | 0.00 | 0.00 | 49 | |
| 20260903143322 | 13 | 207 | 11.3 | 14.5 | 0.00 | 0.00 | 0.00 | 50 | |
| 20260903142824 | 13 | 301 | 1.6 | 3.2 | 0.00 | 0.00 | 0.00 | 51 | |
| 20260903141829 | 12 | 232 | 19.3 | 20.9 | 0.00 | 0.00 | 0.00 | 52 | |
| 20260903141331 | 12 | 217 | 3.2 | 8.0 | 0.00 | 0.00 | 0.00 | 53 | |
| 20260903140333 | 12 | 246 | 3.2 | 0.0 | 0.00 | 0.00 | 0.00 | 54 | |
| 20260903135835 | 12 | 239 | 4.8 | 4.8 | 0.00 | 0.00 | 0.00 | 55 | |
| 20260903135337 | 12 | 180 | 1.6 | 3.2 | 0.00 | 0.00 | 0.00 | 55 | |
| 20260903134839 | 12 | 222 | 0.0 | 0.0 | 0.00 | 0.00 | 0.00 | 55 | |
| 20260903134342 | 12 | 172 | 3.2 | 3.2 | 0.00 | 0.00 | 0.00 | 55 | |
| 20260903133844 | 12 | 207 | 6.4 | 8.0 | 0.00 | 0.00 | 0.00 | 55 | |
| 20260903133343 | 12 | 208 | 6.4 | 3.2 | 0.00 | 0.00 | 0.00 | 55 | |
| 20260903132845 | 12 | 222 | 6.4 | 4.8 | 0.00 | 0.00 | 0.00 | 54 | |
| 20260903132348 | 12 | 212 | 4.8 | 9.7 | 0.00 | 0.00 | 0.00 | 54 | |
| 20260903131850 | 12 | 138 | 4.8 | 3.2 | 0.00 | 0.00 | 0.00 | 53 | |
| 20260903131352 | 12 | 188 | 1.6 | 0.0 | 0.00 | 0.00 | 0.00 | 53 | |
| 20260903130854 | 12 | 207 | 3.2 | 6.4 | 0.00 | 0.00 | 0.00 | 53 | |
| 20260903130354 | 12 | 248 | 3.2 | 3.2 | 0.00 | 0.00 | 0.00 | 53 | |
| 20260903125856 | 12 | 187 | 1.6 | 1.6 | 0.00 | 0.00 | 0.00 | 52 | |
| 20260903125358 | 12 | 198 | 3.2 | 4.8 | 0.00 | 0.00 | 0.00 | 52 | |
| 20260903124901 | 13 | 246 | 4.8 | 0.0 | 0.00 | 0.00 | 0.00 | 52 | |
| 20260903124403 | 12 | 256 | 1.6 | 0.0 | 0.00 | 0.00 | 0.00 | 52 | |
| 20260903123905 | 12 | 203 | 20.9 | 20.9 | 0.00 | 0.00 | 0.00 | 52 | |
| 20260903123404 | 12 | 232 | 20.9 | 20.9 | 0.00 | 0.00 | 0.00 | 52 | |
| 20260903122906 | 12 | 226 | 12.9 | 16.1 | 0.00 | 0.00 | 0.00 | 52 | |
| 20260903122409 | 12 | 235 | 20.9 | 19.3 | 0.00 | 0.00 | 0.00 | 51 | |
| 20260903121911 | 12 | 218 | 22.5 | 20.9 | 0.00 | 0.00 | 0.00 | 51 | |
| 20260903121413 | 12 | 201 | 17.7 | 6.4 | 0.00 | 0.00 | 0.00 | 51 | |
| 20260903120915 | 12 | 232 | 16.1 | 22.5 | 0.00 | 0.00 | 0.00 | 51 | |
| 20260903120415 | 12 | 255 | 19.3 | 14.5 | 0.00 | 0.00 | 0.00 | 51 | |
| 20260903115917 | 12 | 229 | 17.7 | 24.1 | 0.00 | 0.00 | 0.00 | 50 | |
| 20260903115419 | 12 | 191 | 20.9 | 16.1 | 0.00 | 0.00 | 0.00 | 51 | |
| 20260903114921 | 12 | 217 | 22.5 | 19.3 | 0.00 | 0.00 | 0.00 | 51 | |
| 20260903114424 | 12 | 205 | 19.3 | 20.9 | 0.00 | 0.00 | 0.00 | 50 | |
| 20260903113926 | 12 | 219 | 22.5 | 22.5 | 0.00 | 0.00 | 0.00 | 50 | |
| 20260903113425 | 12 | 190 | 20.9 | 16.1 | 0.00 | 0.00 | 0.00 | 50 | |
| 20260903112927 | 13 | 224 | 17.7 | 19.3 | 0.00 | 0.00 | 0.00 | 50 | |
| 20260903112430 | 13 | 229 | 20.9 | 24.1 | 0.00 | 0.00 | 0.00 | 50 | |
| 20260903111932 | 12 | 207 | 17.7 | 27.4 | 0.00 | 0.00 | 0.00 | 50 | |
| 20260903111435 | 13 | 208 | 19.3 | 20.9 | 0.00 | 0.00 | 0.00 | 49 | |
| 20260903110936 | 13 | 211 | 20.9 | 20.9 | 0.00 | 0.00 | 0.00 | 50 | |
| 20260903105938 | 13 | 212 | 17.7 | 24.1 | 0.00 | 0.00 | 0.00 | 49 | |
| 20260903105440 | 13 | 232 | 14.5 | 14.5 | 0.00 | 0.00 | 0.00 | 49 | |
| 20260903104942 | 13 | 215 | 20.9 | 16.1 | 0.00 | 0.00 | 0.00 | 48 | |
| 20260903104445 | 13 | 224 | 16.1 | 20.9 | 0.00 | 0.00 | 0.00 | 48 | |
| 20260903103947 | 13 | 231 | 16.1 | 6.4 | 0.00 | 0.00 | 0.00 | 47 | |
| 20260903103446 | 13 | 205 | 8.0 | 9.7 | 0.00 | 0.00 | 0.00 | 47 | |
| 20260903102948 | 13 | 233 | 12.9 | 16.1 | 0.00 | 0.00 | 0.00 | 46 | |
| 20260903102524 | 13 | 233 | 17.7 | 9.7 | 0.00 | 0.00 | 0.00 | 46 | |
| 20260903102451 | 13 | 233 | 17.7 | 9.7 | 0.00 | 0.00 | 0.00 | 46 | |
| 20260903101953 | 13 | 218 | 12.9 | 17.7 | 0.00 | 0.00 | 0.00 | 45 | |
| 20260903101455 | 13 | 210 | 8.0 | 19.3 | 0.00 | 0.00 | 0.00 | 44 | |
| 20260903100957 | 13 | 210 | 12.9 | 16.1 | 0.00 | 0.00 | 0.00 | 43 | |
| 20260903100456 | 13 | 212 | 11.3 | 14.5 | 0.00 | 0.00 | 0.00 | 42 | |
| 20260903095959 | 13 | 215 | 8.0 | 12.9 | 0.00 | 0.00 | 0.00 | 42 | |
| 20260903095501 | 13 | 214 | 14.5 | 17.7 | 0.00 | 0.00 | 0.00 | 41 | |
| 20260903095004 | 13 | 219 | 14.5 | 11.3 | 0.00 | 0.00 | 0.00 | 41 | |
| 20260903094506 | 13 | 233 | 14.5 | 9.7 | 0.00 | 0.00 | 0.00 | 40 | |
| 20260903094008 | 13 | 249 | 16.1 | 12.9 | 0.00 | 0.00 | 0.00 | 40 | |
| 20260903093507 | 13 | 214 | 12.9 | 4.8 | 0.00 | 0.00 | 0.00 | 40 | |
| 20260903093009 | 13 | 229 | 14.5 | 20.9 | 0.00 | 0.00 | 0.00 | 40 | |
| 20260903092511 | 13 | 214 | 12.9 | 11.3 | 0.00 | 0.00 | 0.00 | 39 | |
| 20260903092046 | 14 | 218 | 14.5 | 19.3 | 0.00 | 0.00 | 0.00 | 39 | |
| 20260903092014 | 14 | 218 | 14.5 | 19.3 | 0.00 | 0.00 | 0.00 | 39 | |
| 20260903091516 | 14 | 238 | 14.5 | 12.9 | 0.00 | 0.00 | 0.00 | 39 | |
| 20260903091019 | 14 | 249 | 16.1 | 12.9 | 0.00 | 0.00 | 0.00 | 38 | |
| 20260903090517 | 14 | 217 | 14.5 | 14.5 | 0.00 | 0.00 | 0.00 | 38 | |
| 20260903090020 | 14 | 221 | 12.9 | 11.3 | 0.00 | 0.00 | 0.00 | 37 | |
| 20260903085522 | 14 | 201 | 12.9 | 12.9 | 0.00 | 0.00 | 0.00 | 37 | |
| 20260903085024 | 14 | 242 | 11.3 | 9.7 | 0.00 | 0.00 | 0.00 | 37 | |
| 20260903084527 | 14 | 195 | 0.0 | 16.1 | 0.00 | 0.00 | 0.00 | 36 | |
| 20260903084029 | 14 | 228 | 1.6 | 0.0 | 0.00 | 0.00 | 0.00 | 36 | |
| 20260903083528 | 14 | 198 | 0.0 | 0.0 | 0.00 | 0.00 | 0.00 | 36 | |
| 20260903083030 | 14 | 198 | 1.6 | 3.2 | 0.00 | 0.00 | 0.00 | 35 | |
| 20260903082532 | 14 | 217 | 0.0 | 4.8 | 0.00 | 0.00 | 0.00 | 35 | |
| 20260903082037 | 14 | 273 | 1.6 | 4.8 | 0.00 | 0.00 | 0.00 | 34 | |
| 20260903082035 | 14 | 198 | 0.0 | 0.0 | 0.00 | 0.00 | 0.00 | 34 | |
| 20260903081537 | 14 | 273 | 1.6 | 4.8 | 0.00 | 0.00 | 0.00 | 34 | |
| 20260903081141 | 14 | 260 | 0.0 | 0.0 | 0.00 | 0.00 | 0.00 | 34 | |
| 20260903081039 | 14 | 260 | 0.0 | 0.0 | 0.00 | 0.00 | 0.00 | 34 | |
| 20260903080538 | 14 | 226 | 3.2 | 0.0 | 0.00 | 0.00 | 0.00 | 34 | |
| 20260903080231 | 14 | 222 | 0.0 | 0.0 | 0.00 | 0.00 | 0.00 | 34 | |
| 20260903080041 | 14 | 222 | 0.0 | 0.0 | 0.00 | 0.00 | 0.00 | 34 | |
| 20260903075543 | 14 | 240 | 1.6 | 4.8 | 0.00 | 0.00 | 0.00 | 35 | |
| 20260903075045 | 14 | 249 | 1.6 | 4.8 | 0.00 | 0.00 | 0.00 | 35 | |
| 20260903074547 | 14 | 153 | 0.0 | 0.0 | 0.00 | 0.00 | 0.00 | 35 | |
| 20260903074448 | 15 | 249 | 0.0 | 0.0 | 0.00 | 0.00 | 0.00 | 34 | |
| 20260903074050 | 15 | 249 | 0.0 | 0.0 | 0.00 | 0.00 | 0.00 | 34 | |
| 20260903073549 | 15 | 193 | 1.6 | 0.0 | 0.00 | 0.00 | 0.00 | 33 | |
| 20260903072553 | 14 | 219 | 6.4 | 8.0 | 0.00 | 0.00 | 0.00 | 31 | |
| 20260903072056 | 14 | 193 | 1.6 | 0.0 | 0.00 | 0.00 | 0.00 | 33 | |
| 20260903071558 | 14 | 207 | 4.8 | 8.0 | 0.00 | 0.00 | 0.00 | 34 | |
| 20260903071100 | 13 | 262 | 4.8 | 4.8 | 0.00 | 0.00 | 0.00 | 36 | |
| 20260903070559 | 13 | 146 | 1.6 | 1.6 | 0.00 | 0.00 | 0.00 | 38 | |
| 20260903065604 | 13 | 269 | 0.0 | 0.0 | 0.00 | 0.00 | 0.00 | 42 | |
| 20260903065106 | 13 | 269 | 0.0 | 0.0 | 0.00 | 0.00 | 0.00 | 42 | |
| 20260903064608 | 13 | 201 | 0.0 | 0.0 | 0.00 | 0.00 | 0.00 | 43 | |
| 20260903064111 | 13 | 201 | 0.0 | 0.0 | 0.00 | 0.00 | 0.00 | 43 | |
| 20260903063610 | 13 | 222 | 0.0 | 0.0 | 0.00 | 0.00 | 0.00 | 45 | |
| 20260903063112 | 13 | 222 | 0.0 | 0.0 | 0.00 | 0.00 | 0.00 | 45 | |
| 20260903062614 | 13 | 222 | 0.0 | 0.0 | 0.00 | 0.00 | 0.00 | 46 | |
| 20260903062116 | 13 | 191 | 1.6 | 0.0 | 0.00 | 0.00 | 0.00 | 47 | |
| 20260903061619 | 13 | 226 | 0.0 | 0.0 | 0.00 | 0.00 | 0.00 | 47 | |
| 20260903061121 | 13 | 226 | 0.0 | 0.0 | 0.00 | 0.00 | 0.00 | 46 | |
| 20260903060620 | 13 | 226 | 0.0 | 0.0 | 0.00 | 0.00 | 0.00 | 45 | |
| 20260903060122 | 13 | 226 | 0.0 | 0.0 | 0.00 | 0.00 | 0.00 | 45 | |
| 20260903055127 | 14 | 215 | 0.0 | 0.0 | 0.00 | 0.00 | 0.00 | 42 | |
| 20260903054629 | 14 | 215 | 0.0 | 0.0 | 0.00 | 0.00 | 0.00 | 40 | |
| 20260903054131 | 14 | 215 | 0.0 | 0.0 | 0.00 | 0.00 | 0.00 | 40 | |
| 20260903053630 | 14 | 215 | 0.0 | 0.0 | 0.00 | 0.00 | 0.00 | 40 | |
| 20260903052636 | 15 | 215 | 0.0 | 0.0 | 0.00 | 0.00 | 0.00 | 38 | |
| 20260903052137 | 15 | 215 | 0.0 | 0.0 | 0.00 | 0.00 | 0.00 | 36 | |
| 20260903051640 | 15 | 215 | 0.0 | 0.0 | 0.00 | 0.00 | 0.00 | 34 | |
| 20260903051142 | 15 | 215 | 0.0 | 0.0 | 0.00 | 0.00 | 0.00 | 32 | |
| 20260903050641 | 16 | 215 | 0.0 | 0.0 | 0.00 | 0.00 | 0.00 | 30 | |
| 20260903050143 | 16 | 215 | 0.0 | 0.0 | 0.00 | 0.00 | 0.00 | 27 | |
| 20260903045645 | 16 | 215 | 0.0 | 0.0 | 0.00 | 0.00 | 0.00 | 25 | |
| 20260903045148 | 16 | 215 | 0.0 | 0.0 | 0.00 | 0.00 | 0.00 | 24 | |
| 20260903044650 | 16 | 215 | 0.0 | 0.0 | 0.00 | 0.00 | 0.00 | 24 | |
| 20260903044152 | 16 | 215 | 0.0 | 0.0 | 0.00 | 0.00 | 0.00 | 24 | |
| 20260903043752 | 16 | 215 | 0.0 | 0.0 | 0.00 | 0.00 | 0.00 | 24 | |
| 20260903043651 | 16 | 215 | 0.0 | 0.0 | 0.00 | 0.00 | 0.00 | 24 | |
| 20260903043154 | 16 | 215 | 0.0 | 0.0 | 0.00 | 0.00 | 0.00 | 24 | |
| 20260903042656 | 16 | 215 | 0.0 | 0.0 | 0.00 | 0.00 | 0.00 | 23 | |
| 20260903042158 | 16 | 215 | 0.0 | 0.0 | 0.00 | 0.00 | 0.00 | 22 | |
| 20260903041700 | 16 | 215 | 0.0 | 0.0 | 0.00 | 0.00 | 0.00 | 19 | |
| 20260903041203 | 16 | 215 | 0.0 | 0.0 | 0.00 | 0.00 | 0.00 | 18 | |
| 20260903040702 | 17 | 215 | 0.0 | 0.0 | 0.00 | 0.00 | 0.00 | 18 | |
| 20260903040205 | 17 | 215 | 0.0 | 0.0 | 0.00 | 0.00 | 0.00 | 17 | |
| 20260903035706 | 17 | 215 | 0.0 | 0.0 | 0.00 | 0.00 | 0.00 | 15 | |
| 20260903035208 | 17 | 215 | 0.0 | 0.0 | 0.00 | 0.00 | 0.00 | 14 | |
| 20260903034711 | 17 | 215 | 0.0 | 0.0 | 0.00 | 0.00 | 0.00 | 13 | |
| 20260903034213 | 17 | 215 | 0.0 | 0.0 | 0.00 | 0.00 | 0.00 | 12 | |
| 20260903033712 | 18 | 215 | 0.0 | 0.0 | 0.00 | 0.00 | 0.00 | 11 | |
| 20260903033214 | 18 | 215 | 0.0 | 0.0 | 0.00 | 0.00 | 0.00 | 11 | |
| 20260903032717 | 18 | 215 | 0.0 | 0.0 | 0.00 | 0.00 | 0.00 | 9 | |
| 20260903032219 | 18 | 215 | 0.0 | 0.0 | 0.00 | 0.00 | 0.00 | 7 | |
| 20260903031721 | 18 | 215 | 0.0 | 0.0 | 0.00 | 0.00 | 0.00 | 6 | |
| 20260903031223 | 18 | 215 | 0.0 | 0.0 | 0.00 | 0.00 | 0.00 | 5 | |
| 20260903030723 | 19 | 215 | 0.0 | 0.0 | 0.00 | 0.00 | 0.00 | 5 | |
| 20260903030225 | 19 | 215 | 0.0 | 0.0 | 0.00 | 0.00 | 0.00 | 5 | |
| 20260903025727 | 19 | 215 | 0.0 | 0.0 | 0.00 | 0.00 | 0.00 | 5 | |
| 20260903025229 | 20 | 215 | 0.0 | 0.0 | 0.00 | 0.00 | 0.00 | 5 | |
| 20260903024234 | 20 | 215 | 0.0 | 0.0 | 0.00 | 0.00 | 0.00 | 5 | |
| 20260903023733 | 20 | 215 | 0.0 | 0.0 | 0.00 | 0.00 | 0.00 | 5 | |
| 20260903023235 | 20 | 215 | 0.0 | 0.0 | 0.00 | 0.00 | 0.00 | 5 | |
| 20260903022737 | 20 | 215 | 0.0 | 0.0 | 0.00 | 0.00 | 0.00 | 5 | |
| 20260903022239 | 21 | 215 | 0.0 | 0.0 | 0.00 | 0.00 | 0.00 | 4 | |
| 20260903021742 | 21 | 215 | 0.0 | 0.0 | 0.00 | 0.00 | 0.00 | 4 | |
| 20260903021244 | 21 | 215 | 0.0 | 0.0 | 0.00 | 0.00 | 0.00 | 4 | |
| 20260903020743 | 21 | 215 | 0.0 | 0.0 | 0.00 | 0.00 | 0.00 | 4 | |
| 20260903020245 | 21 | 215 | 0.0 | 0.0 | 0.00 | 0.00 | 0.00 | 3 | |
| 20260903015748 | 22 | 215 | 0.0 | 0.0 | 0.00 | 0.00 | 0.00 | 3 | |
| 20260903015250 | 22 | 215 | 0.0 | 0.0 | 0.00 | 0.00 | 0.00 | 4 | |
| 20260903014752 | 22 | 184 | 0.0 | 0.0 | 0.00 | 0.00 | 0.00 | 4 | |
| 20260903014254 | 22 | 184 | 0.0 | 0.0 | 0.00 | 0.00 | 0.00 | 4 | |
| 20260903013753 | 22 | 184 | 0.0 | 0.0 | 0.00 | 0.00 | 0.00 | 4 | |
| 20260903013256 | 22 | 204 | 16.1 | 22.5 | 0.00 | 0.00 | 0.00 | 4 | |
| 20260903012758 | 22 | 257 | 0.0 | 0.0 | 0.00 | 0.00 | 0.00 | 4 | |
| 20260903012300 | 23 | 257 | 0.0 | 0.0 | 0.00 | 0.00 | 0.00 | 4 | |
| 20260903011802 | 23 | 257 | 0.0 | 0.0 | 0.00 | 0.00 | 0.00 | 5 | |
| 20260903011305 | 23 | 187 | 0.0 | 0.0 | 0.00 | 0.00 | 0.00 | 5 | |
| 20260903010804 | 23 | 187 | 0.0 | 0.0 | 0.00 | 0.00 | 0.00 | 5 | |
| 20260903010306 | 23 | 187 | 0.0 | 0.0 | 0.00 | 0.00 | 0.00 | 5 | |
| 20260903005808 | 23 | 165 | 4.8 | 8.0 | 0.00 | 0.00 | 0.00 | 5 | |
| 20260903005310 | 23 | 198 | 16.1 | 0.0 | 0.00 | 0.00 | 0.00 | 5 | |
| 20260903004813 | 23 | 224 | 0.0 | 0.0 | 0.00 | 0.00 | 0.00 | 6 | |
| 20260903004315 | 23 | 204 | 1.6 | 0.0 | 0.00 | 0.00 | 0.00 | 6 | |
| 20260903003814 | 23 | 205 | 1.6 | 0.0 | 0.00 | 0.00 | 0.00 | 6 | |
| 20260903003317 | 23 | 219 | 0.0 | 0.0 | 0.00 | 0.00 | 0.00 | 6 | |
| 20260903002937 | 23 | 200 | 1.6 | 9.7 | 0.00 | 0.00 | 0.00 | 6 | |
| 20260903002819 | 23 | 200 | 1.6 | 9.7 | 0.00 | 0.00 | 0.00 | 6 | |
| 20260903002321 | 23 | 212 | 4.8 | 22.5 | 0.00 | 0.00 | 0.00 | 7 | |
| 20260903001823 | 23 | 203 | 12.9 | 11.3 | 0.00 | 0.00 | 0.00 | 9 | |
| 20260903001327 | 23 | 204 | 22.5 | 9.7 | 0.00 | 0.00 | 0.00 | 8 | |
| 20260903000824 | 24 | 194 | 6.4 | 12.9 | 0.00 | 0.00 | 0.00 | 8 | |
| 20260903000327 | 24 | 187 | 6.4 | 9.7 | 0.00 | 0.00 | 0.00 | 8 | |
| 20260902235829 | 24 | 194 | 14.5 | 27.4 | 0.00 | 0.00 | 0.00 | 7 | |
| 20260902235331 | 24 | 221 | 8.0 | 0.0 | 0.00 | 0.00 | 0.00 | 6 | |
| 20260902234833 | 24 | 194 | 14.5 | 0.0 | 0.00 | 0.00 | 0.00 | 7 | |
| 20260902233835 | 24 | 179 | 4.8 | 0.0 | 0.00 | 0.00 | 0.00 | 7 | |
| 20260902233337 | 25 | 187 | 22.5 | 14.5 | 0.00 | 0.00 | 0.00 | 6 | |
| 20260902232839 | 25 | 203 | 6.4 | 4.8 | 0.00 | 0.00 | 0.00 | 6 | |
| 20260902232341 | 25 | 200 | 8.0 | 0.0 | 0.00 | 0.00 | 0.00 | 6 | |
| 20260902231844 | 25 | 212 | 4.8 | 0.0 | 0.00 | 0.00 | 0.00 | 6 | |
| 20260902231346 | 25 | 214 | 3.2 | 0.0 | 0.00 | 0.00 | 0.00 | 6 | |
| 20260902230845 | 25 | 195 | 16.1 | 22.5 | 0.00 | 0.00 | 0.00 | 6 | |
| 20260902230347 | 25 | 194 | 3.2 | 0.0 | 0.00 | 0.00 | 0.00 | 6 | |
| 20260902225849 | 25 | 191 | 14.5 | 12.9 | 0.00 | 0.00 | 0.00 | 6 | |
| 20260902225352 | 25 | 193 | 17.7 | 14.5 | 0.00 | 0.00 | 0.00 | 6 | |
| 20260902224854 | 25 | 187 | 0.0 | 0.0 | 0.00 | 0.00 | 0.00 | 6 | |
| 20260902224356 | 25 | 203 | 6.4 | 0.0 | 0.00 | 0.00 | 0.00 | 5 | |
| 20260902223855 | 25 | 194 | 6.4 | 25.7 | 0.00 | 0.00 | 0.00 | 5 | |
| 20260902223358 | 25 | 193 | 6.4 | 4.8 | 0.00 | 0.00 | 0.00 | 6 | |
| 20260902222900 | 26 | 219 | 3.2 | 0.0 | 0.00 | 0.00 | 0.00 | 5 | |
| 20260902222402 | 26 | 177 | 3.2 | 9.7 | 0.00 | 0.00 | 0.00 | 5 | |
| 20260902221904 | 26 | 214 | 12.9 | 14.5 | 0.00 | 0.00 | 0.00 | 5 | |
| 20260902221406 | 26 | 177 | 1.6 | 0.0 | 0.00 | 0.00 | 0.00 | 5 | |
| 20260902220906 | 26 | 193 | 6.4 | 9.7 | 0.00 | 0.00 | 0.00 | 4 | |
| 20260902220408 | 26 | 218 | 4.8 | 9.7 | 0.00 | 0.00 | 0.00 | 5 | |
| 20260902215910 | 26 | 194 | 6.4 | 0.0 | 0.00 | 0.00 | 0.00 | 5 | |
| 20260902215412 | 26 | 204 | 6.4 | 0.0 | 0.00 | 0.00 | 0.00 | 4 | |
| 20260902214915 | 26 | 180 | 1.6 | 0.0 | 0.00 | 0.00 | 0.00 | 4 | |
| 20260902214417 | 26 | 203 | 1.6 | 0.0 | 0.00 | 0.00 | 0.00 | 4 | |
| 20260902213916 | 26 | 218 | 1.6 | 0.0 | 0.00 | 0.00 | 0.00 | 4 | |
| 20260902213418 | 26 | 173 | 1.6 | 12.9 | 0.00 | 0.00 | 0.00 | 4 | |
| 20260902212920 | 26 | 208 | 8.0 | 0.0 | 0.00 | 0.00 | 0.00 | 4 | |
| 20260902212423 | 26 | 228 | 0.0 | 0.0 | 0.00 | 0.00 | 0.00 | 4 | |
| 20260902211925 | 26 | 201 | 6.4 | 0.0 | 0.00 | 0.00 | 0.00 | 4 | |
| 20260902211427 | 26 | 233 | 3.2 | 8.0 | 0.00 | 0.00 | 0.00 | 4 | |
| 20260902210926 | 26 | 194 | 0.0 | 0.0 | 0.00 | 0.00 | 0.00 | 4 | |
| 20260902210428 | 26 | 191 | 0.0 | 0.0 | 0.00 | 0.00 | 0.00 | 4 | |
| 20260902205931 | 26 | 233 | 0.0 | 0.0 | 0.00 | 0.00 | 0.00 | 4 | |
| 20260902205433 | 26 | 174 | 6.4 | 3.2 | 0.00 | 0.00 | 0.00 | 4 | |
| 20260902204935 | 26 | 195 | 4.8 | 11.3 | 0.00 | 0.00 | 0.00 | 4 | |
| 20260902204438 | 26 | 217 | 0.0 | 6.4 | 0.00 | 0.00 | 0.00 | 4 | |
| 20260902203936 | 26 | 198 | 1.6 | 0.0 | 0.00 | 0.00 | 0.00 | 4 | |
| 20260902203439 | 26 | 239 | 3.2 | 14.5 | 0.00 | 0.00 | 0.00 | 4 | |
| 20260902202941 | 26 | 205 | 3.2 | 6.4 | 0.00 | 0.00 | 0.00 | 4 | |
| 20260902202443 | 26 | 165 | 0.0 | 0.0 | 0.00 | 0.00 | 0.00 | 5 | |
| 20260902201945 | 26 | 181 | 4.8 | 0.0 | 0.00 | 0.00 | 0.00 | 5 | |
| 20260902201448 | 26 | 233 | 1.6 | 8.0 | 0.00 | 0.00 | 0.00 | 4 | |
| 20260902200947 | 26 | 250 | 11.3 | 0.0 | 0.00 | 0.00 | 0.00 | 4 |